Regional Weather Roundup
Issued by NWS Mobile, AL

Home | Current Version | Previous Version | Text Only | Print | Product List | Glossary Off
Versions: 1 2 3 4 5 6 7 8 9 10 11 12 13 14 15 16 17 18 19 20 21 22 23 24 25 26

000
ASUS44 KMOB 281712
RWRMOB
REGIONAL WEATHER ROUNDUP
NATIONAL WEATHER SERVICE MOBILE AL
1200 PM CDT WED SEP 28 2016

NOTE: "FAIR" INDICATES FEW OR NO CLOUDS BELOW 12,000 FEET WITH NO
      SIGNIFICANT WEATHER AND/OR OBSTRUCTIONS TO VISIBILITY.

  * THESE STATIONS ARE PART OF THE UNIVERSITY OF SOUTH ALABAMA
    MESONET AND ARE NOT UNDER NWS OR FAA QUALITY CONTROL.

ALZ061>064-281800-
COASTAL ALABAMA

CITY           SKY/WX    TMP DP  RH WIND       PRES   REMARKS
MOBILE REG APT MOSUNNY   85  64  49 VRB6      30.00F
BROOKLEY FIELD MOSUNNY   87  65  47 VRB5      30.00F
USA CAMPUS*    NOT AVBL
DOG RIVER*     NOT AVBL


CITY           SKY/WX    TMP DP  RH WIND       PRES   REMARKS
MOUNT VERNON*  NOT AVBL
SARALAND*      NOT AVBL
BAY MINETTE*   NOT AVBL
LOXLEY*        NOT AVBL
ROBERTSDALE*   NOT AVBL
FAIRHOPE*      NOT AVBL
ELBERTA*       NOT AVBL
FOLEY*         NOT AVBL
GRAND BAY*     NOT AVBL
DAUPHIN ISLND* NOT AVBL
BON SCOUR NWR* NOT AVBL
GULF SHORES    MOSUNNY   84  74  71 W7        29.98F

$$

ALZ051>060-281800-
INTERIOR SOUTHWEST AND SOUTH CENTRAL ALABAMA

CITY           SKY/WX    TMP DP  RH WIND       PRES   REMARKS
GREENVILLE     NOT AVBL
EVERGREEN      MOSUNNY   87  66  49 VRB6      29.99F
CASTLEBERRY*   NOT AVBL
ATMORE*        NOT AVBL
DIXIE*         NOT AVBL
ANDALUSIA/OPP  MOSUNNY   87  69  54 VRB6      29.98F
ANDALUSIA*     NOT AVBL
FLORALA APT    LGT RAIN  83  70  64 CALM      29.99F
FLORALA*       NOT AVBL

$$

FLZ001>006-281800-
WESTERN FLORIDA PANHANDLE

CITY           SKY/WX    TMP DP  RH WIND       PRES   REMARKS
PENSACOLA      PTSUNNY   86  74  67 E5        29.97F
NAS PENSACOLA  PTSUNNY   85  73  67 VRB7      29.97F
MILTON         PTSUNNY   84  72  67 W5        29.98F
WHTNG S FIELD  PTSUNNY   88  73  61 W6        29.98F HX  95


CITY           SKY/WX    TMP DP  RH WIND       PRES   REMARKS
WALNUT HILL*   NOT AVBL
JAY*           NOT AVBL
DUKE FIELD     PTSUNNY   87  69  55 S2        29.97F
CRESTVIEW      PTSUNNY   86  69  56 VRB3      29.99F
VALPARAISO     MOSUNNY   87  71  58 SE7       29.97F
DESTIN         SUNNY     87  75  67 VRB5      29.98S HX  96

$$

MSZ076-079-281800-
INTERIOR SOUTHEAST MISSISSIPPI

CITY           SKY/WX    TMP DP  RH WIND       PRES   REMARKS
LEAKESVILLE*   NOT AVBL
AGRICOLA*      NOT AVBL

$$

MARINE OBSERVATIONS

STATION/POSITION TIME  TEMP    WIND        PRES    WAVE
                       AIR SEA DIR/SP/G            HT/PER
                 (UTC) (F)     (DEG/KT/KT) (MB)    (FT/S)
PASCAGOULA       1600   83      10/  6/  7 1015.9R
PETIT BOIS ISLND 1600   81      60/  4/  6 1016.8R
GRAND BAY        1500   79      50/  5     1017.0R
KATRINA CUT      1500   79      50/  4     1016.6R
CEDAR POINT      1600   80      50/  5     1015.9S
E DAUPHIN ISLAND 1600   80     350/  5/  6 1015.6S
MIDDLE BAY LIGHT 1600   82     350/  8     1015.6S
USCG MOBILE BAY  1600   81 85   30/  4/  6 1016.5R
STATE DOCKS      1600   88 86              1015.9R
MEAHER PARK      1600   82     310/  4     1015.6S
WEEKS BAY        1500   82                   N/A
FORT MORGAN      1600   81      20/  6/  7 1015.4R
12 S ORANGE BCH  1650   82 87  250/  2/  4 1015.4F   1
PENSACOLA BAY    1600   82 85  180/  4/  5 1015.7S
64 S DAUPHIN ISL 1600   82 85  310/  6/  6 1015.5S
67 S FORT MORGAN 1630   84        CALM     1015.9S

$$

SELECTED LOCATIONS ACROSS THE REGION

CITY           SKY/WX    TMP DP  RH WIND       PRES   REMARKS
NEW ORLEANS    MOSUNNY   89  64  43 N6        30.02F
GULFPORT       SUNNY     86  61  42 N6        29.99F
PASCAGOULA AP  MOSUNNY   86  66  51 VRB3      29.99F
PASCAGOULA*    NOT AVBL
HATTIESBURG    SUNNY     82  56  40 VRB3      30.02S
LAUREL         SUNNY     82  55  39 W3        30.02F
MERIDIAN       SUNNY     86  50  28 SW8       30.00F
JACKSON        SUNNY     82  49  31 W8        30.01F
MONTGOMERY     SUNNY     87  53  31 VRB3      29.97F
TROY           MOSUNNY   85  64  49 SW10      29.99F
KINSTON*       NOT AVBL
GENEVA*        NOT AVBL
ASHFORD*       NOT AVBL
DOTHAN         PTSUNNY   86  70  58 VRB6      30.01S
PANAMA CITY    MOSUNNY   86  71  60 S8        29.97S

$$





USA.gov is the U.S. government's official web portal to all federal, state and local government web resources and services.